{"data":{"norad_id":58318,"epoch":"2026-05-25T05:28:48.400608Z","epoch_age_seconds":55663,"freshness":"FRESH","line1":"1 58318U 23174BQ  26145.22833797  .00032148  00000+0  49906-3 0  9999","line2":"2 58318  97.3910 235.9631 0006573 207.5968 152.4937 15.53895585142184","mean_motion":15.53895585,"eccentricity":0.0006573,"inclination_deg":97.391,"raan_deg":235.9631,"arg_perigee_deg":207.5968,"mean_anomaly_deg":152.4937,"bstar":0.00049906,"rev_number":14218,"period_min":92.670319286608,"perigee_km":400.90613296734,"apogee_km":409.82372460292,"semimajor_km":6783.5019287851,"source":"CELESTRAK","updated_at":"2026-05-25T13:38:13.300821Z"}}